Voltar ao catálogo

SCOUT A-1 DEB

AtivoPO
NORAD 15764·DEBRIS·🇺🇸 United States

Lançado Oct 30, 1973 de Vandenberg Space Force Base

Loading…

Próximas Passagens (próximas 24 horas)

TLE

AtualizadoSource: Space-Track

Época: Sep 14, 2026, 12:46 UTC

1 15764U 73081C   26257.53195876  .00000152  00000-0  16049-3 0  9999
2 15764  90.4765 282.1898 0179737 271.6192 244.1284 13.65552385148658

Acompanhe SCOUT A-1 DEB em tempo real com AllMySat

Download on the App Store